Location: Eddinghausen
(52.1058°N, 9.8049°E)
Time: 15:14:37
(UTC+00:00)

Daily predictions for brighter satellites

Satellite Brightness Start Highest point End
(mag) Time Altitude Azimuth Time Altitude Azimuth Time Altitude Azimuth
Cosmos 1726 Rocket 3.7 15:44:29 10° S 15:48:49 57° E 15:53:11 10° NNE
Cosmos 44 3.5 15:44:28 10° NW 15:49:57 85° NE 15:55:11 10° SE
Cosmos 2219 3.5 15:44:40 10° S 15:50:03 50° ESE 15:55:30 10° NE
ERS-2 1.5 15:47:51 10° SSE 15:50:45 66° ENE 15:53:41 10° N
USA 307 2.7 15:49:39 10° WNW 15:53:31 83° SSW 15:57:23 10° ESE
Lacrosse 4 Rocket 2.1 15:49:46 10° NNW 15:53:50 35° NE 15:57:48 10° ESE
Cosmos 2228 4.0 15:49:39 10° SSW 15:53:51 48° WNW 15:58:04 10° N
Cosmos 1825 Rocket 4.0 15:51:43 10° NNW 15:56:01 66° W 16:00:17 10° S
ATLAS 2AS CENTAUR R/B 3.3 15:50:11 10° NW 15:56:46 38° NNE 16:03:03 10° E
Cosmos 1500 3.4 15:55:27 10° N 15:58:50 41° ENE 16:02:12 10° SSE
Cosmos 1862 3.3 15:56:00 10° NNW 15:59:56 85° W 16:03:51 10° S
Cosmos 1544 2.7 15:57:13 10° N 16:00:28 62° ENE 16:03:40 10° SSE
CZ-4B R/B 4.3 15:57:52 10° ESE 16:02:08 28° ENE 16:06:18 10° N
Cosmos 405 Rocket 2.9 15:59:34 10° S 16:03:17 53° E 16:07:04 10° NNE
Cosmos 2298 Rocket 4.3 15:58:53 10° SSW 16:04:11 72° WNW 16:09:33 10° NNE
Cosmos 1833 Rocket 4.5 16:02:26 10° NNW 16:05:13 14° NNE 16:08:00 10° NE
Cosmos 2082 4.2 16:00:44 10° S 16:05:59 43° ESE 16:11:16 10° NE
Cosmos 407 Rocket 4.1 16:03:51 10° NNW 16:08:33 33° NE 16:13:11 10° ESE
H-2A R/B 4.1 16:06:13 10° SSW 16:10:36 29° W 16:14:57 10° NNW
Cosmos 2251 Rocket 4.0 16:07:02 10° NNW 16:12:01 38° NE 16:17:00 10° ESE
YAOGAN 1 4.3 16:14:06 12° ENE 16:14:58 13° NE 16:16:51 10° NNE
USA 306 3.0 16:15:24 10° W 16:17:29 32° SSW 16:19:26 10° SE
Meteor 1-27 4.5 16:13:19 10° SSW 16:18:57 75° WNW 16:24:34 10° N
Tsikada Rocket 4.4 16:13:45 10° SSW 16:19:57 67° WNW 16:26:08 10° N
CZ-2D R/B 3.5 16:20:42 10° S 16:24:21 69° WSW 16:28:02 10° NNW
Cosmos 1238 Rocket 3.7 16:22:55 10° SSW 16:26:18 40° WNW 16:29:19 10° N
Aureole 3 Rocket 4.1 16:22:05 10° NNW 16:26:49 47° W 16:30:21 10° SSW
SMAP 3.0 16:25:14 10° SSE 16:29:53 79° ENE 16:34:34 10° NNW
Cosmos 1076 Rocket 3.6 16:25:32 10° NNW 16:29:55 83° W 16:34:16 10° S
ISS -1.8 16:28:24 10° W 16:31:22 29° SSW 16:34:20 10° SSE
Cosmos 1437 Rocket 3.6 16:27:54 10° NNW 16:31:32 52° W 16:35:11 10° S
Cosmos 1812 3.5 16:31:04 10° SSE 16:34:15 28° E 16:36:21 17° NE
Cosmos 2263 Rocket 2.3 16:29:11 10° SSW 16:34:38 60° ESE 16:39:42 12° NE
USA 305 3.0 16:31:04 10° WNW 16:34:51 64° SSW 16:38:39 10° SE
NOSS 3-3 (C) 4.5 16:29:54 10° WSW 16:35:35 54° NNW 16:41:35 13° NE
CZ-2C R/B 3.0 16:32:05 10° S 16:35:37 65° WSW 16:39:13 10° NNW
Cosmos 1844 Rocket 4.2 16:32:44 10° SE 16:35:53 16° E 16:36:38 15° E
NOSS 3-3 (A) 4.5 16:30:17 10° WSW 16:35:57 54° NNW 16:41:54 13° NE
Meteor 1-20 Rocket 4.3 16:31:34 10° N 16:37:01 56° ENE 16:42:34 10° SSE
USA 234 4.0 16:34:42 15° ENE 16:39:30 37° SE 16:45:27 10° SSW
Cosmos 2082 Rocket 4.1 16:37:49 10° N 16:39:52 12° N 16:41:47 10° NNE
Cosmos 1607 4.0 16:33:37 10° SW 16:39:59 87° SE 16:45:37 14° NE
CORIOLIS 4.2 16:34:57 10° SSE 16:40:19 88° WSW 16:45:44 10° NNW
Cosmos 2227 Rocket 2.8 16:35:27 10° SW 16:41:00 55° NW 16:46:35 10° NNE
Cosmos 1023 Rocket 4.4 16:35:54 10° NNW 16:41:05 73° ENE 16:46:12 10° SSE
SL-16 R/B 4.2 16:35:50 10° N 16:41:07 30° NW 16:46:24 10° WSW
Lacrosse 5 3.7 16:39:37 10° SSE 16:42:12 14° ESE 16:43:23 13° ESE
Cosmos 1812 Rocket 4.1 16:42:20 10° SSE 16:46:17 36° E 16:49:24 15° NNE
ATLAS CENTAUR R/B 2.9 16:43:15 10° WNW 16:47:10 67° SSW 16:54:43 10° SE
CZ-4B R/B 4.1 16:49:40 24° ENE 16:49:53 24° ENE 16:53:15 10° N
Cosmos 1603 3.6 16:45:29 10° NNW 16:51:12 69° ENE 16:56:50 10° SE
Helios 1A 3.3 16:53:54 19° NE 16:56:33 43° E 17:00:30 10° S
BREEZE-M DEB (TANK) 3.8 16:54:01 10° WSW 16:57:54 82° SSE 17:07:14 20° ENE
Meteor 1-31 Rocket 3.2 16:55:29 10° S 16:59:08 61° WSW 17:02:50 10° NNW
RESURS DK-1 3.2 16:56:34 10° NNW 17:00:09 28° NE 17:00:24 28° NE
ADEOS 3.8 16:55:39 10° SE 17:00:35 45° ENE 17:05:34 10° N
Cosmos 1666 3.6 16:59:30 10° NNW 17:02:54 47° W 17:06:18 10° S
SL-16 R/B 4.4 16:59:05 10° NW 17:03:49 28° WSW 17:08:31 10° SSW
DMSP B5D2-2 4.3 17:00:25 10° NNE 17:05:37 71° WNW 17:10:48 10° SSW
Cosmos 1140 Rocket 3.6 17:03:03 10° NNW 17:08:16 76° WSW 17:13:24 10° SSE
COSMO-SKYMED 1 2.9 17:11:14 32° NE 17:12:38 43° E 17:16:47 10° S
Cosmos 1553 Rocket 4.4 17:07:05 10° N 17:13:01 39° ENE 17:18:49 10° SE
Cosmos 1782 3.1 17:11:06 10° SSE 17:14:40 41° E 17:14:40 41° E
Cosmos 1943 3.7 17:10:39 10° NW 17:16:13 63° WSW 17:21:46 10° SSE
Cosmos 2058 Rocket 4.5 17:12:51 10° SW 17:17:01 38° WNW 17:21:10 10° N
CBERS 1 LM4 rocket 4.2 17:12:55 10° SSE 17:17:43 85° ENE 17:22:29 10° NNW
Cosmos 220 Rocket 4.0 17:13:26 10° NNW 17:17:43 55° ENE 17:19:31 31° SE
Cosmos-2242 3.0 17:17:58 10° SSW 17:22:18 84° W 17:26:00 14° N
Cosmos 2026 Rocket 4.0 17:19:27 10° S 17:25:34 59° E 17:31:48 10° NNE
CZ-4 R/B 4.3 17:22:50 10° SSE 17:26:55 90° WNW 17:31:02 10° NNW
Radarsat Rocket 3.9 17:21:22 10° SSE 17:27:12 86° WSW 17:33:24 10° NNW
CZ-4B DEB 4.4 17:23:46 14° SE 17:28:22 48° ENE 17:33:41 10° N
Cosmos 2297 Rocket 4.1 17:25:27 10° W 17:29:50 22° NW 17:34:04 11° NNE
Lacrosse 4 Rocket 2.8 17:28:13 10° NW 17:32:18 41° WSW 17:36:18 10° S
Cosmos 2195 Rocket 4.4 17:26:03 10° S 17:32:20 75° E 17:38:37 10° NNE
Cosmos 2221 4.4 17:28:51 10° SSE 17:29:58 17° SSE 17:29:58 17° SSE
Cosmos 676 Rocket 4.1 17:28:09 10° NNW 17:33:25 55° ENE 17:34:53 41° ESE
Cosmos 2219 4.4 17:29:09 10° WSW 17:34:23 38° NW 17:38:38 15° NNE
USA 276 4.0 17:33:50 10° SW 17:34:51 20° SW 17:34:51 20° SW
CZ-4B R/B 4.2 17:35:37 10° S 17:40:34 52° WSW 17:45:24 10° NNW
NOAA 6 4.3 17:35:35 10° S 17:40:41 67° WSW 17:45:49 10° NNW
Cosmos 1092 Rocket 3.8 17:35:30 10° S 17:41:36 76° E 17:47:46 10° NNE
SL-08 R/B 3.2 17:42:13 59° ESE 17:42:13 59° ESE 17:46:46 10° S
Meteor 2-2 Rocket 4.2 17:36:31 10° S 17:42:17 90° W 17:48:14 10° NNE
Nadezhda 4 Rocket 4.3 17:36:51 10° SSW 17:42:56 64° WNW 17:49:02 10° N
Cosmos 1844 4.1 17:38:25 10° S 17:43:29 41° ESE 17:43:29 41° ESE
Cosmos 1766 Rocket 3.7 17:42:11 10° N 17:45:47 57° NNE 17:45:47 57° NNE
ATLAS 2AS CENTAUR R/B 2.6 17:41:33 10° NW 17:48:35 84° NE 17:51:50 34° SE
SME Rocket 4.3 17:43:57 10° SSE 17:49:46 79° ENE 17:58:58 10° NNW
IGS 5A 4.5 17:51:57 34° N 17:51:57 34° N 17:54:21 10° NNW
YAOGAN 1 2.8 17:51:10 54° N 17:51:10 54° N 17:54:35 10° NNW
Cosmos 407 Rocket 4.4 17:45:45 10° NW 17:50:42 47° WSW 17:55:35 10° S
Cosmos 1833 Rocket 3.6 17:45:54 10° NNW 17:49:59 31° NNE 17:49:59 31° NNE
PAYLOAD B 4.2 17:51:25 55° ENE 17:51:33 55° ENE 17:56:59 10° N
Cosmos 2344 3.4 17:46:33 10° SSW 17:53:58 73° SE 17:56:47 41° ENE
SKYMED 2 3.8 17:59:52 51° NNW 18:00:48 69° WNW 18:05:06 10° SSW
Cosmos 1954 Rocket 4.0 17:59:39 10° NNW 18:04:57 80° WSW 18:06:46 42° SSE
Cosmos 2056 Rocket 4.0 17:59:40 10° S 18:03:48 48° SSE 18:03:48 48° SSE
Meteor 1-26 Rocket 4.0 18:03:53 10° S 18:09:26 80° E 18:10:05 69° NE
ADEOS Rocket 4.0 18:12:41 28° N 18:12:41 28° N 18:15:38 10° N
CZ-4B R/B 4.0 18:15:22 40° N 18:15:22 40° N 18:19:02 10° N
Cosmos 1933 4.4 18:10:49 10° SSW 18:13:50 43° WSW 18:13:50 43° WSW
Cosmos 1844 Rocket 2.6 18:13:19 10° SSW 18:18:19 72° S 18:18:19 72° S
Cosmos 2263 Rocket 3.6 18:13:53 10° WSW 18:18:53 33° NW 18:21:23 23° N
Cosmos 1818 3.5 18:14:14 10° SW 18:19:36 84° WNW 18:19:36 84° WNW
USA 234 3.1 18:22:03 68° ENE 18:23:02 88° SSE 18:29:36 10° WSW
Lacrosse 5 2.8 18:19:20 10° SW 18:22:37 38° SSW 18:22:37 38° SSW
CZ-4B R/B 4.2 18:25:22 40° WNW 18:25:22 40° WNW 18:28:25 10° NNW
Cosmos 2082 Rocket 4.0 18:21:32 10° NNW 18:23:37 19° N 18:23:37 19° N
Cosmos 2227 Rocket 4.3 18:22:32 10° WNW 18:26:22 18° NNW 18:28:42 14° N
RESURS DK-1 4.4 18:34:12 10° NW 18:36:06 25° NW 18:36:06 25° NW
Timation 2 Rocket 4.1 18:40:35 10° SW 18:45:36 63° WSW 18:45:36 63° WSW
COSMO-SKYMED 1 4.5 18:48:27 27° WNW 18:48:38 27° WNW 18:52:17 10° WSW
ATLAS 2AS CENTAUR R/B 4.2 19:33:09 10° WNW 19:38:46 28° WSW 19:39:18 27° WSW
